Regional Weather Roundup
Issued by NWS

Home | Current Version | Previous Version | Text Only | Print | Product List | Glossary Off
Versions: 1 2 3 4 5 6 7 8 9 10 11 12 13 14 15 16 17 18 19 20 21 22 23 24 25 26 27 28 29 30 31 32 33 34 35 36 37 38 39 40 41 42 43 44 45 46 47 48 49 50

175
ASUS43 KMPX 011810
RWRMN
WEATHER ROUNDUP FOR MINNESOTA
NATIONAL WEATHER SERVICE TWIN CITIES/CHANHASSEN MN
100 PM CDT SAT OCT 01 2016


NOTE: "FAIR" INDICATES FEW OR NO CLOUDS BELOW 12,000 FEET WITH NO
SIGNIFICANT WEATHER AND/OR OBSTRUCTIONS TO VISIBILITY. N/A MEANS
CURRENT SKY AND/OR WEATHER CONDITIONS ARE NOT AVAILABLE.

MNZ060>063-068>070-011900-
   Twin Cities Metro

CITY           SKY/WX    TMP DP  RH WIND       PRES   REMARKS
TWIN CITIES    SUNNY     67  55  65 NE8       30.13F
6HR MIN TEMP:  52; 6HR MAX TEMP:  68;

ST PAUL        MOSUNNY   68  56  65 NE5       30.13F
CRYSTAL        SUNNY     66  52  60 N9        30.13F
BLAINE         MOSUNNY   64  57  77 NE7       30.15F
LAKEVILLE      SUNNY     68  55  64 NE10      30.12F
EDEN PRAIRIE   SUNNY     69  55  60 NE9       30.12F
6HR MIN TEMP:  53; 6HR MAX TEMP:  69;

LAKEVILLE      SUNNY     68  55  64 NE10      30.12F
SOUTH ST PAUL  SUNNY     68  55  61 NE6       30.12F
LAKE ELMO      FAIR      66  55  68 N8        30.14F
$$
MNZ001>005-007-008-013>017-022>024-027-028-011900-
   Northwest Minnesota

CITY           SKY/WX    TMP DP  RH WIND       PRES   REMARKS
BEMIDJI        MOSUNNY   58  52  81 S5        30.18F
HALLOCK        SUNNY     66  55  68 S10       30.12F
ROSEAU         MOSUNNY   61  55  82 CALM      30.17F
WARROAD        MOSUNNY   57  54  88 E5        30.18F
THIEF RVR FALL MOSUNNY   64  53  67 SE3       30.16F
CROOKSTON      CLOUDY    66  54  63 SE7       30.14F
FOSSTON        CLOUDY    66  48  52 S5        30.16F
DETROIT LAKES  SUNNY     63  54  72 SE8       30.16F
MOORHEAD       SUNNY     68  54  60 S8        30.13F
PARK RAPIDS    SUNNY     61  51  70 CALM      30.17F
MAHNOMEN       FAIR      67  52  58 S5        30.14F
$$
MNZ006-009>011-018-025>026-011900-
   North Central Minnesota

CITY           SKY/WX    TMP DP  RH WIND       PRES   REMARKS
BAUDETTE       MOSUNNY   62  52  69 E5        30.18F
FLAG ISLAND    CLOUDY    57  50  77 SE7       30.17F
INTL FALLS     MOSUNNY   66  49  54 SE5       30.19F
6HR MIN TEMP:  42; 6HR MAX TEMP:  66;

WASKISH        SUNNY     59  55  88 E3        30.18F
BIG FORK       SUNNY     66  52  59 CALM      30.19F
LONGVILLE      CLOUDY    63  52  67 S3        30.18F
GRAND RAPIDS   CLOUDY    61  53  75 CALM      30.20F
ORR            SUNNY     68  48  49 CALM      30.16F
COOK           SUNNY     66  48  52 S5        30.19F
WALKER         FAIR      56  51  82 E3        30.18F
$$
MNZ012-019>021-037-011900-
   Northeast Minnesota

CITY           SKY/WX    TMP DP  RH WIND       PRES   REMARKS
DULUTH         MOSUNNY   64  53  67 E8        30.19F
6HR MIN TEMP:  49; 6HR MAX TEMP:  64;

ELY            SUNNY     66  45  45 E5        30.19F
HIBBING        CLOUDY    61  51  70 SE5       30.19F
EVELETH        MOSUNNY   65  49  55 SE6       30.20F
DULUTH HARBOR  SUNNY     59  54  82 NE8       30.20F
TWO HARBORS    SUNNY     66  57  72 E9        30.18F
SILVER BAY     SUNNY     64  55  72 E9        30.18F
GRAND MARAIS     N/A     61  56  83 NE7       30.20F
G MARAIS ARPRT SUNNY     64  45  48 NE7       30.22F
$$
MNZ029>031-032-039>041-046>048-054>057-064-011900-
   West Central Minnesota

CITY           SKY/WX    TMP DP  RH WIND       PRES   REMARKS
FERGUS FALLS   SUNNY     66  54  63 SE6       30.15F
MORRIS         SUNNY     70  54  56 SE3       30.13F
ALEXANDRIA     SUNNY     64  55  72 E5        30.17F
ELBOW LAKE     FAIR      68  55  63 SE8       30.14F
WADENA         MOSUNNY   63  54  72 SE3       30.16F
GLENWOOD       SUNNY     66  55  68 E6        30.16F
BENSON         SUNNY     70  54  56 SE3       30.14F
ORTONVILLE     PTSUNNY   68  55  64 SE5       30.12F
MADISON        CLOUDY    70  55  60 E3        30.13F
WILLMAR        FAIR      70  55  60 NE7       30.14F
$$
MNZ033>034-036-042>043-049>051-058-059-011900-
   Central Minnesota

CITY           SKY/WX    TMP DP  RH WIND       PRES   REMARKS
ST CLOUD       SUNNY     64  54  69 VRB6      30.15F
6HR MIN TEMP:  51; 6HR MAX TEMP:  64;

SAUK CENTRE    FAIR      64  54  69 E6        30.16F
PAYNESVILLE    SUNNY     68  53  57 NE3       30.15F
AITKIN         SUNNY     66  52  59 CALM      30.16F HAZE
PINE RIVER     CLOUDY    63  52  67 CALM      30.20F
BRAINERD       SUNNY     65  53  65 CALM      30.17F
STAPLES        SUNNY     63  52  67 NE3       30.17F
LONG PRAIRIE   FAIR      63  52  67 E6        30.17F
LITTLE FALLS   SUNNY     66  52  59 E3        30.16
LITCHFIELD     SUNNY     70  55  60 NE6       30.14F
BUFFALO        SUNNY     64  53  67 NE6       30.16F
MAPLE LAKE     SUNNY     66  56  71 NE6       30.16F
HUTCHINSON     SUNNY     69  57  66 NE7       30.14F
$$
MNZ037-044-045-052-053-011900-
   East Central Minnesota

CITY           SKY/WX    TMP DP  RH WIND       PRES   REMARKS
PRINCETON        N/A     64  55  72 N5        30.16F
MORA           SUNNY     64  54  68 CALM      30.18F
CAMBRIDGE      SUNNY     63  52  67 NE5       30.14F
MOOSE LAKE     SUNNY     64  52  63 NE5       30.16F
HINCKLEY       FAIR      66  54  63 NE5       30.16F
CLOQUET        SUNNY     63  50  63 E10       30.18F
MCGREGOR       SUNNY     66  54  63 NE6       30.18F
$$
MNZ071>073-080-081-089-090-097-098-011900-
   Southwest Minnesota

CITY           SKY/WX    TMP DP  RH WIND       PRES   REMARKS
MONTEVIDEO     SUNNY     73  54  49 CALM      30.15F
GRANITE FALLS  SUNNY     70  55  58 E5        30.14F
CANBY          CLOUDY    66  55  66 SE3       30.14F
MARSHALL       SUNNY     69  55  60 E6        30.13F
REDWOOD FALLS  SUNNY     72  51  47 E6        30.11F
OLIVIA         SUNNY     70  52  52 E5        30.12F
PIPESTONE      CLOUDY    66  54  63 E3        30.13F
WINDOM         MOSUNNY   70  52  52 NE6       30.12F
WORTHINGTON    CLOUDY    66  54  65 NE5       30.13F
JACKSON        CLOUDY    70  52  52 NE12      30.12F
TRACY          SUNNY     69  55  60 NE3       30.13F
$$
MNZ065>067-074>077-082>085-091>093-011900-
   South Central Minnesota

CITY           SKY/WX    TMP DP  RH WIND       PRES   REMARKS
MANKATO        MOSUNNY   69  55  60 NE9       30.11F
NEW ULM          N/A     70  54  56 E7        30.12F
ST JAMES       MOSUNNY   68  54  60 CALM      30.12F
FAIRMONT       CLOUDY    69  54  58 NE7       30.12F
FARIBAULT      MOSUNNY   70  55  60 NE8       30.12F
OWATONNA       SUNNY     70  55  60 NE10      30.11F
WASECA         PTSUNNY   68  55  64 N8        30.12F
ALBERT LEA     CLOUDY    72  54  53 NE6       30.10F
$$
MNZ078>079-086>088-094>096-011900-
   Southeast Minnesota

CITY           SKY/WX    TMP DP  RH WIND       PRES   REMARKS
ROCHESTER      PTSUNNY   68  57  68 NE9       30.11F
6HR MIN TEMP:  57; 6HR MAX TEMP:  68;

RED WING       SUNNY     72  48  43 E7        30.10F
STANTON        MOSUNNY   71  55  56 NE8       30.10F
DODGE CENTER   MOSUNNY   70  54  56 N10G16    30.11F
WINONA         PTSUNNY   66  55  68 CALM      30.10F
AUSTIN         CLOUDY    66  54  63 NE8       30.10S
PRESTON        CLOUDY    61  54  78 NE9       30.11F
$$
ABBREVIATIONS USED IN REMARKS
   TC - TEMPERATURES IN CELSIUS
  WCI - WIND CHILL INDEX
   HX - HEAT INDEX
  VSB - VISIBILITY
$$




USA.gov is the U.S. government's official web portal to all federal, state and local government web resources and services.